TimeEDT,TemperatureF,Dew PointF,Humidity,Sea Level PressureIn,VisibilityMPH,Wind Direction,Wind SpeedMPH,Gust SpeedMPH,PrecipitationIn,Events,Conditions,WindDirDegrees,DateUTC
12:53 AM,35.1,30.9,85,30.24,10.0,North,5.8,-,N/A,,Clear,360,2011-11-04 04:53:00
1:53 AM,33.1,30.9,92,30.24,10.0,North,8.1,-,N/A,,Clear,350,2011-11-04 05:53:00
2:53 AM,34.0,30.0,85,30.25,10.0,North,9.2,-,N/A,,Clear,350,2011-11-04 06:53:00
3:53 AM,33.8,30.2,87,30.23,10.0,North,8.1,-,N/A,,Clear,360,2011-11-04 07:53:00
4:53 AM,33.1,30.0,89,30.25,10.0,North,9.2,-,N/A,,Clear,350,2011-11-04 08:53:00
5:53 AM,32.0,30.0,92,30.26,10.0,North,6.9,-,N/A,,Clear,360,2011-11-04 09:53:00
6:53 AM,30.9,28.9,92,30.28,10.0,North,5.8,-,N/A,,Clear,360,2011-11-04 10:53:00
7:53 AM,30.9,28.0,89,30.30,10.0,North,6.9,-,N/A,,Clear,350,2011-11-04 11:53:00
8:22 AM,32.0,28.4,87,30.29,10.0,North,6.9,-,N/A,,Mostly Cloudy,350,2011-11-04 12:22:00
8:53 AM,32.0,30.0,92,30.33,10.0,North,6.9,-,N/A,,Partly Cloudy,350,2011-11-04 12:53:00
9:53 AM,37.0,33.1,86,30.34,10.0,North,6.9,-,N/A,,Clear,360,2011-11-04 13:53:00
10:53 AM,41.0,35.1,79,30.35,10.0,North,9.2,-,N/A,,Clear,10,2011-11-04 14:53:00
11:53 AM,46.0,37.0,71,30.36,10.0,NNE,9.2,-,N/A,,Clear,20,2011-11-04 15:53:00
12:53 PM,46.9,37.0,68,30.37,10.0,East,6.9,-,N/A,,Mostly Cloudy,80,2011-11-04 16:53:00
1:06 PM,48.2,35.6,62,30.35,10.0,NNE,5.8,-,N/A,,Mostly Cloudy,30,2011-11-04 17:06:00
1:35 PM,50.0,37.4,62,30.35,10.0,NE,8.1,-,N/A,,Mostly Cloudy,50,2011-11-04 17:35:00
1:51 PM,50.0,35.6,58,30.34,10.0,NNE,8.1,-,N/A,,Mostly Cloudy,20,2011-11-04 17:51:00
1:53 PM,50.0,36.0,59,30.36,10.0,NNE,9.2,-,N/A,,Scattered Clouds,20,2011-11-04 17:53:00
2:53 PM,48.9,33.1,54,30.36,10.0,East,5.8,-,N/A,,Scattered Clouds,90,2011-11-04 18:53:00
3:53 PM,48.9,34.0,56,30.36,10.0,ENE,6.9,-,N/A,,Clear,60,2011-11-04 19:53:00
4:53 PM,48.0,33.1,56,30.36,10.0,ENE,6.9,-,N/A,,Clear,60,2011-11-04 20:53:00
5:53 PM,46.9,32.0,56,30.37,10.0,ENE,5.8,-,N/A,,Clear,70,2011-11-04 21:53:00
6:53 PM,42.1,32.0,67,30.36,10.0,ENE,5.8,-,N/A,,Clear,70,2011-11-04 22:53:00
7:53 PM,39.9,34.0,79,30.37,10.0,ENE,4.6,-,N/A,,Clear,60,2011-11-04 23:53:00
8:53 PM,36.0,33.1,89,30.37,10.0,NE,5.8,-,N/A,,Clear,50,2011-11-05 00:53:00
9:53 PM,37.9,34.0,86,30.38,10.0,ENE,5.8,-,N/A,,Clear,70,2011-11-05 01:53:00
10:53 PM,37.0,33.1,86,30.40,10.0,East,5.8,-,N/A,,Clear,90,2011-11-05 02:53:00
11:53 PM,37.0,33.1,86,30.39,10.0,East,3.5,-,N/A,,Clear,80,2011-11-05 03:53:00